GW0848 Weather Reports


time (UTC)temp
C
wind
direction
speed
KPH
gust
KPH
rain 1hr
cm
rain 24hr
cm
rain mn
cm
humidity
%
barometer
mb
20260506231555 14 208 9.7 19.3 0.13 0.43 0.43 94 1002.8
20260506230054 14 231 12.9 22.5 0.13 0.43 0.43 94 1002.6
20260506224540 14 165 9.7 19.3 0.10 0.41 0.41 94 1002.6
20260506223047 14 176 9.7 22.5 0.03 0.33 0.33 94 1002.8
20260506221531 14 195 6.4 16.1 0.03 0.30 0.30 94 1002.8
20260506220028 14 223 8.0 20.9 0.03 0.30 0.30 94 1003.0
20260506214523 14 158 6.4 16.1 0.03 0.30 0.30 94 1003.0
20260506213020 14 162 11.3 24.1 0.03 0.30 0.30 93 1003.1
20260506211516 15 167 6.4 20.9 0.00 0.28 0.28 92 1003.3
20260506210014 15 163 8.0 24.1 0.00 0.28 0.28 91 1003.4
20260506204509 15 191 8.0 25.7 0.03 0.28 0.28 91 1003.5
20260506203005 15 185 9.7 30.6 0.03 0.28 0.28 91 1003.6
20260506201503 15 226 8.0 30.6 0.05 0.28 0.28 91 1003.6
20260506200104 15 171 12.9 33.8 0.10 0.28 0.28 91 1003.6
20260506194614 15 201 12.9 27.4 0.10 0.25 0.25 91 1003.8
20260506193054 15 203 12.9 27.4 0.18 0.25 0.25 90 1003.8
20260506191551 15 191 14.5 33.8 0.20 0.23 0.23 89 1004.0
20260506190046 15 160 9.7 24.1 0.18 0.18 0.18 88 1004.1
20260506184542 16 154 8.0 22.5 0.15 0.15 0.15 87 1003.9
20260506183055 16 168 8.0 25.7 0.08 0.08 0.08 83 1004.2
20260506181537 17 214 17.7 32.2 0.03 0.03 0.03 80 1004.5
20260506180035 17 225 14.5 35.4 0.00 0.00 0.00 76 1004.5
20260506174527 18 214 19.3 49.9 0.00 0.00 0.00 71 1004.6
20260506173024 20 211 17.7 46.7 0.00 0.00 0.00 66 1004.7
20260506171526 21 192 24.1 46.7 0.00 0.00 0.00 62 1004.3
20260506170015 21 203 14.5 45.1 0.00 0.00 0.00 62 1004.4
20260506164512 21 205 14.5 29.0 0.00 0.00 0.00 60 1004.6
20260506163008 21 196 9.7 32.2 0.00 0.00 0.00 61 1004.6
20260506161503 21 195 14.5 32.2 0.00 0.00 0.00 61 1004.9
20260506160115 21 210 12.9 46.7 0.00 0.00 0.00 62 1005.1
20260506154604 20 200 17.7 38.6 0.00 0.00 0.00 63 1005.3
20260506153051 20 136 6.4 29.0 0.00 0.00 0.00 65 1005.6
20260506151548 20 245 17.7 33.8 0.00 0.00 0.00 64 1005.7
20260506150044 20 199 8.0 35.4 0.00 0.00 0.00 65 1005.8
20260506144553 20 214 12.9 27.4 0.00 0.00 0.00 67 1005.9
20260506143037 19 177 9.7 20.9 0.00 0.00 0.00 70 1006.2
20260506141533 18 205 8.0 24.1 0.00 0.00 0.00 72 1006.0
20260506140028 18 201 12.9 24.1 0.00 0.00 0.00 73 1005.9
20260506134525 18 215 8.0 27.4 0.00 0.00 0.00 74 1005.9
20260506133020 17 196 6.4 22.5 0.00 0.00 0.00 76 1006.0
20260506131515 17 198 11.3 25.7 0.00 0.00 0.00 78 1006.4
20260506130013 16 191 14.5 24.1 0.00 0.00 0.00 80 1006.6
20260506124506 16 222 11.3 27.4 0.00 0.00 0.00 80 1006.6
20260506123104 16 196 6.4 17.7 0.00 0.00 0.00 80 1006.5
20260506121600 15 203 9.7 24.1 0.00 0.00 0.00 82 1006.8
20260506120057 15 212 8.0 22.5 0.00 0.00 0.00 83 1006.8
20260506114555 15 229 4.8 16.1 0.00 0.00 0.00 84 1006.8
20260506113049 14 196 8.0 27.4 0.00 0.00 0.00 85 1007.1
20260506111544 14 154 11.3 22.5 0.00 0.00 0.00 86 1007.3
20260506110041 13 241 8.0 20.9 0.00 0.00 0.00 87 1007.2
20260506104539 13 209 11.3 19.3 0.00 0.00 0.00 86 1007.1
20260506103045 13 178 4.8 14.5 0.00 0.00 0.00 87 1007.0
20260506101530 13 176 6.4 17.7 0.00 0.00 0.00 87 1006.9
20260506100027 13 227 6.4 14.5 0.00 0.00 0.00 87 1007.0
20260506094522 13 219 4.8 14.5 0.00 0.00 0.00 87 1006.9
20260506093018 13 177 8.0 17.7 0.00 0.00 0.00 86 1006.9
20260506091516 13 198 6.4 17.7 0.00 0.00 0.00 86 1006.9
20260506090016 13 203 6.4 20.9 0.00 0.00 0.00 85 1006.9
20260506084505 13 166 9.7 24.1 0.00 0.00 0.00 84 1006.9
20260506083019 14 207 11.3 27.4 0.00 0.00 0.00 84 1007.0
20260506081516 14 193 8.0 20.9 0.00 0.00 0.00 83 1007.0
20260506073105 15 212 11.3 25.7 0.00 0.00 0.00 81 1006.9
20260506071601 15 166 8.0 22.5 0.00 0.00 0.00 80 1006.9
20260506061556 16 205 12.9 27.4 0.00 0.00 0.00 77 1006.6
20260506044521 16 207 16.1 30.6 0.00 0.00 0.00 71 1007.1
20260506043024 16 203 16.1 29.0 0.00 0.00 0.00 71 1007.2
20260506041507 16 246 14.5 30.6 0.00 0.00 0.00 71 1007.1
20260506040004 16 203 12.9 24.1 0.00 0.00 0.00 71 1007.2
20260506034607 16 214 12.9 27.4 0.00 0.00 0.00 71 1007.2
20260506033101 16 202 12.9 27.4 0.00 0.00 0.00 71 1007.1
20260506031556 16 197 9.7 25.7 0.00 0.00 0.00 70 1007.0
20260506030055 16 212 9.7 20.9 0.00 0.00 0.00 70 1006.9
20260506024556 16 200 8.0 25.7 0.00 0.00 0.00 69 1007.0
20260506023043 16 217 19.3 41.8 0.00 0.00 0.00 68 1007.0
20260506021555 16 212 17.7 30.6 0.00 0.00 0.00 67 1007.1
20260506020035 17 222 14.5 32.2 0.00 0.00 0.00 66 1006.9
20260506014532 17 203 20.9 35.4 0.00 0.00 0.00 65 1006.7
20260506013028 17 182 22.5 37.0 0.00 0.00 0.00 65 1006.4
20260506011524 17 221 9.7 24.1 0.00 0.00 0.00 64 1006.5
20260506010125 17 201 17.7 30.6 0.00 0.00 0.00 64 1006.1
20260506004508 18 190 14.5 32.2 0.00 0.00 0.00 62 1006.2
20260506003003 18 180 14.5 24.1 0.00 0.00 0.00 60 1006.1
20260506001604 19 235 16.1 32.2 0.00 0.00 0.00 58 1005.8
20260505234607 20 168 14.5 30.6 0.00 0.00 0.00 55 1005.4
20260505233053 21 204 19.3 37.0 0.00 0.00 0.00 54 1005.2